Weather History for Ogden Hill AFB, UT

Change the Weather History Date:

Friday, November 2, 2012

  Actual Average Record
Temperature  
Mean Temperature 51 °F -  
Max Temperature 58 °F 48 °F 62 °F (2005)
Min Temperature 44 °F 33 °F 15 °F (2002)
Degree Days  
Heating Degree Days 14    
Growing Degree Days 1 (Base 50)    
Moisture  
Dew Point 31 °F    
Average Humidity 48    
Maximum Humidity 62    
Minimum Humidity 31    
Precipitation  
Precipitation 0.00 in - - ()
Sea Level Pressure  
Sea Level Pressure 30.02 in    
Wind  
Wind Speed 6 mph (NE)    
Max Wind Speed 13 mph    
Max Gust Speed -    
Visibility 10 miles    
Events      
Averages and records for this station are not official NWS values.
T = Trace of Precipitation, MM = Missing Value Source: NWS Daily Summary

Daily Weather History Graph

Daily Weather History Graph

Search for Another Location

Airport:

Trip Planner

Search our weather history database for the weather conditions in past years. The results will help you decide how hot, cold, wet, or windy it might be!

Date:

Astronomy

Nov. 02, 2012 Rise Set
Actual Time 8:00 AM MDT 6:21 PM MDT
Civil Twilight 7:32 AM MDT 6:50 PM MDT
Nautical Twilight 6:59 AM MDT 7:22 PM MDT
Astronomical Twilight 6:27 AM MDT 7:54 PM MDT
Moon 9:10 PM MDT (11/2) 11:25 AM MDT (11/2)
Length of Visible Light 11h 18m
Length of Day
10h 20m
Waning Gibbous, 87% of the Moon is Illuminated
Nov 2
Waning Gibbous
Nov 6
Last Quarter
Nov 13
New
Nov 20
First Quarter
Nov 28
Full

Hourly Weather History & Observations

Time (MDT) Temp. Windchill Dew Point Humidity Pressure Visibility Wind Dir Wind Speed Gust Speed Precip Events Conditions
12:55 AM 52.5 °F - 31.8 °F 45% 29.91 in 10.0 mi NNW 5.8 mph - N/A   Overcast
1:55 AM 51.3 °F - 32.2 °F 48% 29.94 in 10.0 mi NNW 4.6 mph - N/A   Partly Cloudy
2:55 AM 48.0 °F - 33.8 °F 58% 29.96 in 10.0 mi NW 4.6 mph - N/A   Scattered Clouds
3:55 AM 46.4 °F - 34.0 °F 62% 29.96 in 10.0 mi Calm Calm - N/A   Partly Cloudy
4:55 AM 45.3 °F 40.6 °F 30.9 °F 57% 29.98 in 10.0 mi ESE 9.2 mph - N/A   Clear
5:55 AM 45.3 °F 40.6 °F 31.5 °F 58% 29.99 in 10.0 mi East 9.2 mph - N/A   Clear
6:55 AM 45.0 °F 40.6 °F 31.5 °F 59% 30.02 in 10.0 mi East 8.1 mph - N/A   Clear
7:55 AM 44.4 °F 39.0 °F 31.3 °F 60% 30.03 in 10.0 mi ESE 10.4 mph - N/A   Clear
8:55 AM 44.4 °F 38.6 °F 31.5 °F 60% 30.05 in 10.0 mi ESE 11.5 mph - N/A   Partly Cloudy
9:55 AM 46.9 °F - 33.4 °F 59% 30.04 in 10.0 mi ESE 11.5 mph - N/A   Partly Cloudy
10:55 AM 52.9 °F - 33.6 °F 48% 30.04 in 10.0 mi Calm Calm - N/A   Clear
11:55 AM 54.1 °F - 34.5 °F 48% 30.04 in 10.0 mi Calm Calm - N/A   Clear
12:55 PM 55.9 °F - 32.2 °F 41% 30.04 in 10.0 mi NNW 5.8 mph - N/A   Clear
1:55 PM 57.0 °F - 30.9 °F 37% 30.02 in 10.0 mi WNW 4.6 mph - N/A   Clear
2:55 PM 57.6 °F - 29.1 °F 34% 30.01 in 10.0 mi Variable 4.6 mph - N/A   Clear
3:55 PM 58.1 °F - 27.1 °F 31% 30.01 in 10.0 mi WNW 6.9 mph - N/A   Clear
4:55 PM 57.9 °F - 27.1 °F 31% 30.01 in 10.0 mi WNW 5.8 mph - N/A   Clear
5:55 PM 54.9 °F - 29.3 °F 38% 30.03 in 10.0 mi NW 6.9 mph - N/A   Clear
6:55 PM 52.5 °F - 27.7 °F 38% 30.06 in 10.0 mi NNW 4.6 mph - N/A   Clear
7:55 PM 51.1 °F - 27.1 °F 40% 30.07 in 10.0 mi Calm Calm - N/A   Clear
8:55 PM 47.7 °F - 28.6 °F 48% 30.07 in 10.0 mi ESE 9.2 mph - N/A   Clear
9:55 PM 47.8 °F - 28.0 °F 46% 30.07 in 10.0 mi ESE 11.5 mph - N/A   Clear
10:55 PM 46.0 °F 40.2 °F 28.4 °F 50% 30.06 in 10.0 mi ESE 12.7 mph - N/A   Clear
11:55 PM 44.8 °F 39.4 °F 29.1 °F 54% 30.07 in 10.0 mi ESE 10.4 mph - N/A   Clear